This is the latest recevied weather packets stored in our database for station/object DH1FR-13. If no packets are shown the sender has not sent any weather packets the latest 10 day(s).
| Time | Temp. | Humidity | Pressure | Rain* | Wind** | Luminosity | Snow |
|---|---|---|---|---|---|---|---|
| 1777680603 | 6.11° C | 91% | 1027.1 hPa | 0 mm | 0 m/s | - | - |
| 1777680001 | 6.11° C | 91% | 1026.8 hPa | 0 mm | 0 m/s | - | - |
| 1777679401 | 6.11° C | 90% | 1026.9 hPa | 0 mm | 0 m/s | - | - |
| 1777678801 | 6.11° C | 90% | 1027.2 hPa | 0 mm | 0 m/s | - | - |
| 1777678201 | 6.67° C | 89% | 1027.2 hPa | 0 mm | 0 m/s | - | - |
| 1777677600 | 6.67° C | 89% | 1027 hPa | 0 mm | 0 m/s | - | - |
| 1777677001 | 6.67° C | 88% | 1027 hPa | 0 mm | 0 m/s | - | - |
| 1777676400 | 7.22° C | 88% | 1027.1 hPa | 0 mm | 0 m/s | - | - |
| 1777675801 | 7.22° C | 87% | 1027.4 hPa | 0 mm | 0 m/s | - | - |
| 1777675201 | 7.22° C | 87% | 1027.3 hPa | 0 mm | 0 m/s | - | - |
| 1777674602 | 7.78° C | 86% | 1027.2 hPa | 0 mm | 0 m/s | - | - |
| 1777674002 | 7.78° C | 85% | 1027.2 hPa | 0 mm | 0 m/s | - | - |
| 1777673401 | 7.78° C | 85% | 1027.3 hPa | 0 mm | 0 m/s | - | - |
| 1777672801 | 8.33° C | 84% | 1027.2 hPa | 0 mm | 0 m/s | - | - |
| 1777672201 | 8.33° C | 83% | 1027 hPa | 0 mm | 0 m/s | - | - |
| 1777671600 | 8.89° C | 82% | 1027.2 hPa | 0 mm | 0 m/s | - | - |
| 1777671000 | 8.89° C | 81% | 1027.3 hPa | 0 mm | 0 m/s | - | - |
| 1777670401 | 9.44° C | 80% | 1027.1 hPa | 0 mm | 0 m/s | - | - |
| 1777669801 | 10° C | 79% | 1027.3 hPa | 0 mm | 0 m/s | - | - |
| 1777669201 | 10° C | 79% | 1027.2 hPa | 0 mm | 0 m/s | - | - |
| 1777668601 | 10° C | 77% | 1027.1 hPa | 0 mm | 0 m/s | - | - |
| 1777668001 | 10.56° C | 75% | 1027.2 hPa | 0 mm | 0 m/s | - | - |
| 1777667401 | 10.56° C | 75% | 1027.3 hPa | 0 mm | 0 m/s | - | - |
| 1777666800 | 11.67° C | 73% | 1027.4 hPa | 0 mm | 0 m/s | - | - |
| 1777666201 | 12.22° C | 69% | 1027.5 hPa | 0 mm | 0 m/s | - | - |
* Rain latest hour (hover to see other rain measurements)
** Current wind speed in m/s (hover to see current wind gust speed)